Temperature
17 15 15 15 15 16 17 16 16 16 17 16 16 16 15 15 15 15 14 14 14 15 15 16 16 17 17 17 17 17 17 17 17 17 17 17 17 16 16 16 16 16 16 16
16 16 17 17 16 16 16 16 16 16 17 17 16 15 15 15 14 14 14 13 14 14 15 15 15 16 16 16 16 17 17 16 16 17 17 16 16 16 16 16 15 15 15 15
17 17 18 18 18 17 17 16 16 16 16 16 16 15 15 14 14 13 13 13 13 13 14 14 15 15 15 15 16 16 16 16 16 16 16 15 15 15 15 15 15 15 15 15
16 17 18 18 18 17 16 17 17 17 15 15 16 14 14 14 14 13 12 12 12 12 13 13 13 14 14 15 15 15 15 15 15 15 15 15 15 14 14 14 14 14 14 14
17 18 18 18 18 18 17 17 17 16 15 14 14 14 14 14 14 13 12 12 11 12 12 12 12 13 13 14 14 14 14 15 15 15 15 14 14 14 13 13 13 13 13 13
17 18 18 18 18 18 17 16 15 13 13 14 15 14 14 14 14 13 12 11 11 11 11 11 12 12 12 13 13 13 14 14 14 14 14 14 13 13 13 13 13 12 12 12
17 18 18 18 18 17 16 15 14 14 13 14 14 14 14 13 13 12 11 10 10 10 11 11 11 11 12 12 12 13 13 13 13 13 13 13 13 12 12 12 12 12 12 11
16 16 18 18 18 17 16 15 14 15 14 13 14 14 13 13 12 11 10 10 10 10 10 10 10 10 11 11 11 11 12 12 12 12 12 12 12 12 11 11 11 11 11 10
16 16 17 18 17 17 16 14 14 13 13 13 13 13 13 12 11 11 10 9 9 9 9 9 9 9 10 10 10 10 11 11 11 11 11 11 11 11 10 10 10 10 9 9
16 16 17 17 17 16 16 14 12 13 13 13 14 13 13 12 12 11 10 9 8 9 8 8 8 9 9 9 9 10 10 10 10 10 10 10 10 9 9 9 9 9 8 8
16 15 16 16 16 16 15 14 12 11 12 13 13 13 13 12 12 10 9 8 8 8 8 8 8 8 8 9 9 9 9 9 9 9 9 9 8 8 8 8 8 8 7 7
14 13 14 15 15 15 15 14 12 13 13 12 12 12 12 11 11 10 9 8 8 8 8 8 8 8 8 8 8 8 8 8 8 8 8 7 7 7 7 7 7 6 6 6
13 13 13 14 14 15 15 14 12 11 11 11 12 12 11 11 10 9 8 8 7 7 7 7 7 7 7 7 7 7 7 7 7 7 7 6 6 6 6 6 6 6 5 5
13 12 13 14 14 14 15 14 13 12 11 12 12 12 11 10 10 9 8 7 7 7 7 7 7 6 6 6 6 6 6 6 6 6 6 6 5 5 5 5 5 5 5 5
13 13 14 14 14 15 15 14 14 13 12 12 12 12 11 10 9 8 8 7 7 7 6 6 6 6 6 6 6 6 5 5 5 5 5 5 5 5 5 5 5 5 4 4
12 13 14 14 15 15 14 14 13 13 12 12 12 11 10 9 9 8 8 7 7 6 6 6 6 6 5 5 5 5 5 5 5 5 5 5 5 4 4 4 4 4 4 4
11 13 13 13 14 14 13 13 13 12 12 12 11 11 9 9 8 8 7 7 7 6 6 6 6 5 5 5 5 5 5 5 5 5 4 4 4 4 4 4 4 4 4 4
11 11 10 12 14 14 13 13 13 12 11 11 10 9 9 9 8 8 8 7 7 6 6 6 6 5 5 5 5 5 5 5 5 4 4 4 4 4 4 4 4 4 4 4
11 11 11 11 13 13 13 13 12 12 11 10 9 9 8 8 7 7 7 7 7 7 6 6 6 5 5 5 5 5 4 4 4 4 4 4 4 4 4 4 4 4 4 3
11 11 11 11 13 13 13 13 13 12 11 10 9 8 8 8 8 7 7 7 7 6 6 6 5 5 5 5 5 5 4 4 4 4 4 4 4 4 4 4 4 4 4 3
13 12 11 11 12 12 12 12 13 12 11 9 9 8 8 8 7 7 7 7 6 6 6 5 5 5 5 5 5 5 4 4 4 4 4 4 4 4 4 4 4 4 4 4
12 12 11 10 12 12 12 12 12 10 9 9 9 8 8 7 7 7 7 6 6 6 5 5 5 5 5 5 5 4 4 4 4 4 4 4 4 4 4 4 4 4 4 4
11 11 10 10 10 10 10 11 11 11 10 9 9 8 8 7 6 6 6 6 6 5 5 5 5 5 4 4 4 4 4 4 4 4 4 4 4 4 4 4 4 4 4 3
11 9 9 10 10 9 9 10 11 11 11 10 9 9 8 7 6 6 6 5 5 5 5 5 5 4 4 4 4 4 4 4 4 4 4 4 4 4 4 4 4 4 4 3
11 10 9 9 9 9 9 10 10 10 10 9 9 8 8 7 6 6 5 5 5 5 5 5 5 4 4 4 4 4 4 4 4 4 4 4 4 4 4 4 4 4 3 3
10 10 10 10 10 9 9 10 10 10 9 9 8 7 7 7 6 6 5 5 5 5 5 5 4 4 4 4 4 4 4 4 4 5 5 5 4 4 4 4 4 4 3 3
Wind_Speed
3 3 4 8 8 7 4 4 7 7 4 2 4 5 5 6 6 6 6 6 7 5 6 6 5 4 5 5 4 4 3 3 4 4 4 4 4 3 3 5 6 6 6 6
4 4 9 6 4 5 5 5 5 4 2 3 6 7 6 7 6 6 6 7 6 6 7 8 7 7 7 6 5 4 3 2 3 3 3 3 4 3 4 5 8 8 7 7
7 7 2 2 2 3 5 6 5 4 2 4 5 3 3 5 6 8 8 8 8 8 8 8 9 8 7 7 6 4 4 3 3 4 4 5 4 3 3 5 5 8 9 10
7 6 3 3 4 4 6 7 6 5 3 2 3 3 2 3 5 6 7 8 9 9 9 8 8 9 8 7 6 5 4 4 3 4 5 7 4 4 4 5 6 8 11 11
6 3 3 4 5 4 6 2 2 3 3 2 1 4 3 4 3 3 5 7 8 8 8 9 9 8 8 7 6 5 5 5 4 4 5 6 7 7 7 8 10 9 9 11
6 3 3 4 2 2 1 4 4 5 4 1 2 4 3 3 4 5 5 6 7 8 9 9 8 8 9 8 7 7 7 7 6 6 6 8 10 10 10 10 9 8 7 8
5 5 2 1 1 3 4 5 4 5 4 3 1 3 2 1 4 6 7 6 7 8 8 9 9 9 9 9 8 7 8 9 8 9 9 9 10 11 11 10 9 8 7 7
2 6 3 1 2 2 1 5 6 4 3 3 2 1 1 4 6 8 8 8 8 8 8 9 9 9 9 9 9 8 8 9 10 10 10 10 10 9 9 10 9 9 8 8
5 5 4 2 0 3 2 2 4 5 2 1 1 1 1 5 7 8 8 7 7 8 7 8 8 8 9 9 9 9 9 10 10 10 11 11 11 11 11 11 10 9 8 9
6 3 4 4 4 4 3 6 5 4 4 2 2 3 4 7 7 7 7 7 7 7 7 7 8 8 8 9 9 10 11 11 11 11 11 11 12 12 11 11 12 11 10 10
4 3 4 4 2 1 2 3 4 4 3 4 3 3 1 7 8 10 8 8 7 7 7 7 7 7 8 9 10 10 11 12 12 12 12 12 12 12 11 11 11 10 10 10
3 4 1 4 4 1 2 3 5 3 2 3 3 3 3 5 8 10 9 8 8 8 7 8 7 8 9 10 10 11 11 11 11 11 12 12 11 11 11 11 10 10 10 9
6 5 2 5 6 4 2 1 3 4 4 3 3 2 3 7 9 9 10 9 8 8 8 8 7 8 9 9 10 11 11 11 11 11 12 12 11 11 11 10 9 9 9 9
6 4 5 5 5 2 1 1 2 4 3 2 3 3 4 7 8 9 9 9 9 9 8 8 8 8 8 9 9 10 10 10 10 11 11 11 10 9 9 9 8 8 8 8
5 3 2 2 1 1 0 1 1 2 4 4 3 3 5 7 8 9 10 10 10 10 9 8 8 8 8 8 8 9 9 8 9 10 10 9 8 8 8 8 8 7 8 8
4 4 2 2 2 2 2 2 2 2 2 3 4 2 4 7 8 9 10 11 11 10 10 9 9 9 8 8 8 8 8 8 8 9 9 8 8 8 8 7 7 7 7 7
3 5 3 1 2 3 2 3 0 2 1 3 3 3 8 8 9 9 10 10 11 11 11 10 9 8 8 7 7 8 7 7 8 8 7 7 7 7 6 6 7 6 5 5
7 5 4 2 2 2 5 1 4 4 2 2 3 5 7 7 6 6 7 10 11 11 11 10 9 9 7 7 7 7 7 7 7 7 6 6 6 6 5 6 5 4 3 4
5 7 4 3 2 3 3 1 4 3 0 2 5 8 8 10 7 5 5 8 9 9 10 9 8 8 8 7 7 7 7 7 6 6 5 5 5 5 5 5 4 3 3 3
6 5 5 4 3 5 5 1 3 4 1 3 6 10 10 7 5 4 7 9 11 11 10 9 8 9 8 7 7 8 7 6 6 5 4 4 5 5 4 3 2 2 2 2
3 4 4 3 3 5 2 0 3 2 5 4 7 9 8 4 4 8 11 10 11 11 11 10 9 8 7 7 7 7 6 5 4 4 4 4 4 4 4 3 3 3 3 3
5 4 3 4 2 5 2 3 4 4 2 5 6 7 8 10 12 12 12 12 13 12 11 10 9 8 6 7 8 7 5 3 4 4 4 4 4 3 4 4 4 4 4 4
4 5 5 6 4 2 2 1 2 4 6 5 7 9 14 14 12 12 12 12 11 11 10 8 9 8 6 5 7 6 3 3 4 4 4 4 4 4 3 4 4 3 3 3
2 3 5 3 0 2 3 4 4 5 6 7 10 13 13 14 13 13 12 11 10 10 9 8 9 8 6 4 4 4 3 3 4 4 3 3 4 4 4 3 3 3 2 2
6 5 5 3 3 4 3 4 7 9 11 13 12 10 13 15 14 13 12 11 10 9 7 7 8 7 6 4 4 3 3 4 4 3 3 3 3 3 3 3 2 2 1 1
5 7 8 7 9 7 6 7 9 11 11 13 14 12 11 12 13 12 11 9 9 8 7 7 7 6 5 4 3 2 2 3 4 2 2 2 2 2 2 2 2 2 1 0
Wind_Direction
53 68 250 239 209 214 234 252 275 280 280 73 102 92 50 51 60 64 68 68 70 61 41 39 45 58 73 77 84 95 106 129 144 155 162 157 144 130 108 87 86 95 105 113
28 273 245 238 216 204 216 252 266 294 344 115 113 89 64 58 60 63 67 60 59 58 48 42 40 46 53 63 64 75 98 123 144 152 157 145 132 118 108 87 72 68 77 85
213 246 251 204 238 233 237 213 226 222 32 83 116 91 86 76 74 66 62 60 52 51 45 40 38 36 40 43 46 54 72 86 101 106 106 115 110 104 95 85 74 63 72 79
237 260 241 237 255 210 264 236 208 189 151 213 176 165 168 121 77 64 59 56 52 46 46 45 40 36 36 33 36 45 63 74 83 106 126 131 128 116 102 96 83 65 63 72
256 244 231 243 247 196 232 276 188 183 159 127 63 145 201 151 137 105 78 65 58 48 47 45 40 36 32 31 37 37 49 59 69 89 110 117 115 110 103 94 85 74 61 60
254 266 222 231 257 199 211 49 53 53 79 98 252 152 202 192 179 148 114 81 64 54 49 47 43 42 37 32 39 45 55 55 61 76 86 100 112 115 109 99 93 82 71 62
316 316 296 208 336 8 68 79 30 7 20 253 284 129 200 169 141 141 130 99 73 58 49 43 38 39 38 32 34 43 58 61 64 75 81 91 102 107 107 104 98 91 82 72
281 301 298 265 191 213 194 140 157 195 216 270 335 143 162 91 106 108 108 100 84 68 57 50 41 38 39 36 36 45 60 70 71 76 79 82 89 94 95 95 96 90 85 81
199 260 303 327 305 150 136 146 158 135 136 139 236 142 138 122 121 119 113 101 88 76 65 60 51 44 45 44 44 49 62 71 74 79 82 80 82 87 91 91 88 88 86 86
168 241 307 319 44 36 110 142 98 119 153 214 242 209 199 182 165 143 130 112 94 84 72 62 57 53 51 52 54 56 61 68 71 73 79 85 82 84 88 90 88 85 82 82
132 163 317 6 37 306 55 85 100 113 150 158 210 254 233 186 169 153 139 123 110 97 83 71 65 62 62 61 61 62 66 70 72 76 81 83 84 86 85 85 84 84 81 79
125 123 294 296 294 258 133 157 150 151 203 165 166 261 360 138 139 137 132 124 113 102 89 79 72 71 70 67 65 67 68 72 75 80 82 82 83 84 85 84 81 81 80 77
134 109 56 348 341 357 43 68 122 120 116 144 159 227 74 106 120 128 129 124 116 107 97 87 77 74 75 75 73 72 73 75 77 81 84 83 82 84 85 85 82 81 82 79
115 107 157 194 231 252 323 24 131 117 136 182 204 180 143 133 135 134 129 125 120 112 106 99 91 83 80 80 81 82 79 79 82 83 84 83 82 84 85 85 82 81 82 82
100 122 180 223 253 167 87 41 93 133 175 181 200 170 167 156 149 141 136 133 127 123 118 112 106 97 91 88 86 85 84 82 87 88 85 85 85 85 85 84 84 81 79 81
84 124 102 22 32 83 66 37 65 80 100 117 118 131 126 127 128 136 142 142 139 136 129 124 118 112 104 99 96 92 89 86 87 88 87 86 85 84 83 84 85 82 78 75
106 121 113 270 337 39 337 304 119 100 95 146 184 178 140 140 146 150 151 149 146 142 137 133 126 119 113 107 103 101 98 93 89 89 89 89 89 87 83 89 85 84 81 78
126 112 117 115 62 257 263 310 134 115 72 88 107 130 143 133 117 116 135 142 141 140 139 135 129 119 112 108 104 100 99 97 94 92 93 94 95 93 89 86 85 84 84 85
129 130 116 118 154 289 292 165 138 130 310 107 125 124 116 116 99 88 111 126 134 132 131 128 125 121 116 115 111 105 100 99 99 96 95 99 102 101 93 87 86 89 96 87
70 92 110 124 157 240 250 270 144 109 282 164 143 143 142 133 134 151 131 120 120 118 120 121 119 116 113 111 109 104 101 100 99 98 99 101 104 105 99 94 83 82 96 93
72 63 106 146 204 259 276 155 128 178 249 159 152 149 147 136 137 133 125 117 119 119 119 118 115 112 114 115 112 108 104 104 104 102 96 90 91 97 98 85 66 75 83 80
157 147 164 145 195 259 358 127 168 203 115 126 134 134 121 112 114 119 120 120 121 119 117 117 113 108 107 111 110 105 105 106 95 90 88 83 79 83 100 94 77 71 83 82
164 180 174 176 202 255 351 101 88 128 125 127 130 128 127 124 125 123 121 121 120 120 118 116 117 113 104 108 115 119 119 100 93 84 79 73 73 70 86 100 94 77 75 82
162 130 112 119 107 58 65 72 72 92 113 120 127 130 129 128 129 126 124 121 119 119 118 119 119 119 116 113 113 121 115 106 102 92 80 78 80 77 71 75 86 90 87 85
172 136 115 129 146 105 68 95 104 97 103 107 109 115 126 128 129 128 126 126 125 121 118 122 126 128 131 128 118 112 112 110 102 90 82 79 87 101 91 75 68 88 108 187
182 166 166 198 186 160 159 140 124 118 117 120 116 110 117 125 127 126 127 127 127 126 124 125 128 131 135 131 121 109 113 117 115 101 93 97 108 112 113 104 62 36 90 112
Height
1492 1497 1500 1497 1496 1497 1498 1500 1502 1496 1489 1491 1493 1495 1494 1493 1492 1491 1491 1491 1491 1492 1493 1494 1495 1496 1497 1499 1502 1504 1506 1508 1512 1514 1516 1518 1520 1523 1526 1528 1530 1533 1535 1538
1497 1498 1490 1488 1490 1494 1497 1500 1499 1494 1488 1490 1494 1497 1496 1495 1495 1494 1494 1493 1493 1494 1494 1494 1495 1495 1496 1498 1500 1503 1505 1507 1509 1511 1512 1515 1518 1519 1522 1525 1528 1531 1532 1535
1495 1490 1485 1486 1488 1492 1493 1496 1494 1494 1490 1491 1495 1501 1499 1499 1498 1498 1497 1496 1496 1496 1496 1496 1496 1496 1497 1498 1500 1502 1504 1506 1507 1509 1511 1512 1515 1516 1519 1521 1524 1527 1530 1532
1491 1485 1484 1485 1487 1487 1493 1484 1486 1489 1495 1500 1497 1509 1503 1499 1500 1500 1500 1499 1499 1498 1498 1498 1498 1498 1498 1499 1500 1502 1503 1504 1506 1508 1509 1510 1511 1513 1516 1519 1522 1525 1527 1529
1488 1483 1483 1485 1482 1482 1484 1480 1483 1487 1493 1500 1500 1506 1506 1499 1501 1502 1502 1502 1502 1501 1501 1500 1500 1500 1500 1500 1500 1501 1503 1504 1505 1506 1507 1509 1510 1512 1514 1517 1521 1523 1525 1527
1483 1480 1480 1479 1477 1478 1479 1483 1487 1494 1499 1508 1501 1505 1506 1501 1499 1501 1503 1504 1504 1503 1503 1502 1502 1502 1501 1501 1502 1502 1502 1503 1504 1505 1507 1507 1508 1511 1514 1517 1520 1522 1524 1526
1486 1481 1478 1477 1479 1479 1482 1493 1506 1507 1513 1510 1500 1503 1504 1497 1497 1500 1503 1505 1505 1506 1505 1504 1504 1503 1503 1503 1503 1503 1503 1503 1504 1505 1507 1507 1509 1511 1514 1517 1520 1521 1523 1526
1494 1493 1480 1477 1479 1482 1484 1490 1506 1512 1514 1511 1502 1503 1502 1498 1499 1501 1504 1506 1507 1507 1507 1507 1506 1505 1505 1504 1504 1504 1504 1504 1505 1506 1508 1508 1510 1512 1514 1517 1520 1522 1524 1526
1494 1492 1479 1476 1476 1478 1484 1490 1491 1502 1506 1512 1507 1503 1501 1500 1501 1503 1505 1507 1508 1509 1509 1509 1508 1508 1507 1506 1506 1506 1505 1505 1506 1507 1509 1510 1511 1513 1516 1518 1521 1523 1525 1527
1484 1490 1482 1478 1477 1479 1481 1487 1497 1503 1509 1512 1506 1504 1502 1499 1501 1503 1506 1508 1509 1510 1511 1511 1510 1510 1509 1509 1508 1508 1508 1507 1508 1509 1509 1511 1513 1516 1518 1520 1522 1524 1527 1529
1481 1491 1488 1483 1484 1485 1485 1489 1496 1503 1504 1510 1512 1508 1495 1496 1498 1502 1506 1508 1510 1511 1512 1513 1512 1512 1512 1511 1511 1511 1510 1510 1510 1511 1512 1514 1517 1519 1521 1523 1525 1527 1530 1531
1483 1492 1495 1488 1482 1480 1482 1486 1493 1499 1503 1505 1508 1509 1495 1495 1498 1502 1506 1509 1511 1512 1514 1514 1514 1514 1514 1514 1514 1514 1514 1514 1514 1515 1517 1519 1521 1523 1525 1527 1528 1530 1532 1534
1483 1492 1500 1497 1493 1485 1484 1486 1489 1495 1502 1505 1507 1506 1497 1498 1501 1504 1507 1510 1512 1514 1515 1516 1517 1517 1517 1517 1517 1517 1518 1518 1519 1520 1522 1523 1525 1527 1529 1530 1532 1534 1536 1537
1478 1491 1498 1500 1496 1489 1487 1487 1488 1493 1501 1502 1500 1499 1499 1500 1503 1506 1508 1511 1513 1515 1517 1518 1519 1520 1520 1520 1521 1522 1522 1523 1524 1525 1527 1528 1530 1532 1533 1534 1536 1538 1539 1540
1479 1489 1489 1488 1486 1485 1486 1487 1488 1491 1493 1498 1496 1496 1498 1500 1503 1506 1509 1512 1514 1516 1518 1520 1521 1522 1524 1525 1526 1526 1527 1528 1530 1530 1532 1534 1535 1536 1537 1538 1540 1541 1542 1543
1481 1487 1488 1489 1486 1486 1489 1488 1489 1490 1492 1494 1495 1498 1498 1500 1504 1507 1509 1512 1515 1518 1520 1522 1524 1525 1527 1528 1529 1530 1532 1533 1535 1536 1537 1539 1540 1541 1542 1542 1543 1544 1545 1546
1484 1488 1494 1496 1490 1489 1495 1490 1490 1491 1492 1493 1496 1498 1499 1501 1504 1507 1509 1512 1515 1518 1521 1523 1526 1528 1529 1531 1533 1534 1536 1537 1539 1540 1542 1543 1544 1545 1546 1546 1547 1547 1548 1548
1483 1490 1497 1498 1495 1501 1495 1488 1488 1491 1493 1493 1494 1497 1499 1502 1505 1507 1510 1512 1516 1519 1522 1525 1527 1530 1532 1534 1536 1538 1540 1542 1543 1544 1545 1547 1548 1548 1549 1549 1550 1550 1551 1551
1478 1487 1496 1502 1501 1497 1491 1488 1489 1492 1494 1494 1496 1498 1501 1504 1507 1510 1512 1514 1517 1520 1523 1526 1529 1532 1534 1537 1539 1541 1543 1545 1546 1547 1549 1550 1551 1551 1552 1552 1552 1552 1553 1553
1481 1484 1494 1500 1500 1502 1493 1486 1486 1491 1496 1495 1495 1498 1501 1504 1508 1512 1513 1515 1518 1521 1525 1528 1531 1534 1537 1540 1542 1544 1546 1548 1549 1550 1552 1553 1553 1554 1554 1554 1554 1554 1554 1555
1485 1489 1494 1498 1498 1494 1488 1486 1487 1497 1497 1494 1495 1498 1501 1503 1507 1510 1513 1516 1519 1523 1527 1530 1533 1537 1540 1542 1545 1547 1549 1550 1552 1553 1554 1555 1555 1556 1556 1556 1556 1555 1556 1556
1485 1490 1493 1498 1498 1497 1487 1486 1490 1492 1490 1492 1495 1498 1501 1504 1507 1510 1514 1518 1521 1525 1529 1533 1536 1539 1542 1545 1547 1549 1551 1553 1554 1556 1556 1557 1558 1558 1558 1558 1557 1557 1557 1557
1482 1484 1486 1491 1494 1488 1487 1487 1488 1488 1490 1492 1495 1499 1502 1505 1509 1513 1517 1521 1524 1528 1532 1535 1538 1542 1545 1548 1550 1552 1554 1555 1557 1558 1559 1559 1560 1560 1560 1559 1559 1559 1558 1558
1481 1481 1485 1487 1487 1487 1487 1487 1488 1489 1491 1493 1496 1500 1503 1507 1511 1515 1519 1524 1528 1531 1535 1538 1541 1544 1547 1550 1552 1554 1556 1558 1559 1560 1560 1561 1561 1561 1561 1561 1560 1560 1559 1559
1476 1480 1484 1486 1487 1488 1488 1489 1490 1492 1494 1496 1499 1503 1506 1509 1514 1518 1522 1526 1531 1534 1538 1541 1544 1547 1550 1552 1554 1556 1558 1560 1561 1561 1562 1562 1562 1562 1562 1562 1561 1561 1560 1560
1472 1474 1479 1480 1479 1483 1488 1490 1492 1494 1496 1499 1502 1506 1510 1513 1516 1521 1525 1529 1533 1537 1540 1544 1547 1549 1552 1554 1556 1558 1560 1561 1562 1563 1563 1564 1564 1563 1563 1563 1563 1563 1562 1562